THOR ABLESTAR DEB, 1522

Orbit data source: Space-Track

THOR ABLESTAR DEB, 1522 is space debris in LEO originally from a launch on Fri, 13 Aug 1965 UTC launched from the Air Force Western Test Range (AFWTR). Debris objects in space refer to the collection of defunct objects orbiting the Earth. Examples of debris include non-operational satellites, rocket bodies, and fragments generated from explosions, collisions, or faulty payload assembly.

Loading next visibility...
Identifier
1522, 1965-065L
Orbit
LEO
Country
Flag of USUS
Related business
Manufacturer
Unknown
Mission
Spacecraft
Bus & Motor
Unknown
Mass
Unknown
Launch date (UTC)
1965-08-13 (61 years ago)
Launch vehicle
Unknown
Launch site
Air Force Western Test Range (AFWTR)
Object type
Payload
Rocket body
Debris
Shape & HBR
Unknown shape, 0.4 m
Radar Cross Section
Medium (>0.1 m² and <1 m²)

Expand to show TLE details & history
Last TLE update: 15 hours ago

TLE from 15 hours ago
0 THOR ABLESTAR DEB
1 01522U 65065L   26258.13780527  .00000039  00000-0  61325-4 0  9991
2 01522  90.0586 127.0679 0070871 356.1684 170.2554 13.33864242971780
Epoch: 2026-09-15T03:18Z
TLE epoch observation values (Epoch: 2026-09-15T03:18:26.375Z)
Latitude
13.40473°
Longitude
-96.63616°
Altitude
1,186.894 km
Speed
7.236 km/s
True Right ascension
20h 28m 19s
True Declination
13° 19' 54"
Sunlit
Object was in full shadow at epoch
Visualization orbit readout
Latitude
Unknown
Longitude
Unknown
Altitude
Unknown
Speed
Unknown
Apparent Right ascension
Unknown
Apparent Declination
Unknown
Sunlit
N/A
Visualization observer readout
Local Sidereal Time
10:30:24
Azimuth
Unknown
Elevation
Unknown
Doppler factor
Unknown
Orbital elements
Apogee altitude
1,182.502 km
Perigee altitude
1,076.09 km
Semi-major axis
7,507.433 km
Eccentricity
0.00709
Inclination
90.0586°
RAAN
127.0679°
Arg. of periapsis
356.1684°
True anomaly
170.39167°
Mean anomaly
170.2554°
Eccentric anomaly
170.32365°
Mean motion
3.33661 °/min
Orbital period
107.89 mins
BSTAR
0.000061325
Loading maneuver chart data...
Computing Atmospheric mass density...
Loading historical data...
Loading historical data...
Loading historical data...
Loading historical data...
Loading historical data...
Loading historical data...
Loading historical data...

Documentation

Showing up to 5 results
|